![]() |
EMODnet Physics ERDDAP
Easier access to scientific data |
log in|
Brought to you by EMODnet Physics |
| Dataset Title: | NDBC - Collection of dew point temperature (DEWT) TimeSeries - IN SITU MultiPointTimeSeriesObservation
|
| Institution: | NDBC (Dataset ID: TS_DEWT_NDBC) |
| Information: | Summary
| License
| FGDC
| ISO 19115
| Metadata
| Background
| Subset
| Data Access Form
| Make a graph
|
| Name | Last modified | Size | Description | |
|---|---|---|---|---|
| Parent Directory | - | - | ||
| ERXA2_TS_DEWT_012018.nc | 27-Oct-2024 09:01 | 994834 | ||
| ERXA2_TS_DEWT_012019.nc | 27-Oct-2024 09:01 | 1073997 | ||
| ERXA2_TS_DEWT_012020.nc | 27-Oct-2024 09:01 | 994846 | ||
| ERXA2_TS_DEWT_012021.nc | 27-Oct-2024 09:01 | 1111719 | ||
| ERXA2_TS_DEWT_012022.nc | 27-Oct-2024 09:01 | 429402 | ||
| ERXA2_TS_DEWT_012023.nc | 27-Oct-2024 09:01 | 429683 | ||
| ERXA2_TS_DEWT_012024.nc | 27-Oct-2024 09:01 | 429686 | ||
| ERXA2_TS_DEWT_012025.nc | 07-Feb-2025 13:11 | 429681 | ||
| ERXA2_TS_DEWT_012026.nc | 02-Feb-2026 19:43 | 429686 | ||
| ERXA2_TS_DEWT_022018.nc | 27-Oct-2024 09:01 | 429684 | ||
| ERXA2_TS_DEWT_022019.nc | 27-Oct-2024 09:01 | 429694 | ||
| ERXA2_TS_DEWT_022020.nc | 27-Oct-2024 09:01 | 429695 | ||
| ERXA2_TS_DEWT_022021.nc | 27-Oct-2024 09:02 | 449336 | ||
| ERXA2_TS_DEWT_022022.nc | 27-Oct-2024 09:02 | 451132 | ||
| ERXA2_TS_DEWT_022023.nc | 27-Oct-2024 09:02 | 429690 | ||
| ERXA2_TS_DEWT_022024.nc | 16-Sep-2024 16:51 | 429680 | ||
| ERXA2_TS_DEWT_022025.nc | 01-Mar-2025 07:50 | 429689 | ||
| ERXA2_TS_DEWT_022026.nc | 01-Mar-2026 10:27 | 429687 | ||
| ERXA2_TS_DEWT_032018.nc | 27-Oct-2024 09:02 | 429698 | ||
| ERXA2_TS_DEWT_032019.nc | 27-Oct-2024 09:02 | 429688 | ||
| ERXA2_TS_DEWT_032020.nc | 27-Oct-2024 09:02 | 429693 | ||
| ERXA2_TS_DEWT_032021.nc | 27-Oct-2024 09:02 | 444001 | ||
| ERXA2_TS_DEWT_032022.nc | 27-Oct-2024 09:02 | 451078 | ||
| ERXA2_TS_DEWT_032023.nc | 27-Oct-2024 09:02 | 429700 | ||
| ERXA2_TS_DEWT_032025.nc | 02-Apr-2025 06:04 | 429702 | ||
| ERXA2_TS_DEWT_032026.nc | 21-Mar-2026 11:45 | 429910 | ||
| ERXA2_TS_DEWT_042019.nc | 27-Oct-2024 09:02 | 429909 | ||
| ERXA2_TS_DEWT_042020.nc | 27-Oct-2024 09:02 | 429914 | ||
| ERXA2_TS_DEWT_042022.nc | 27-Oct-2024 09:02 | 429914 | ||
| ERXA2_TS_DEWT_042023.nc | 27-Oct-2024 09:02 | 429913 | ||
| ERXA2_TS_DEWT_042025.nc | 01-May-2025 05:35 | 429804 | ||
| ERXA2_TS_DEWT_052018.nc | 27-Oct-2024 09:03 | 429916 | ||
| ERXA2_TS_DEWT_052019.nc | 27-Oct-2024 09:03 | 429910 | ||
| ERXA2_TS_DEWT_052020.nc | 27-Oct-2024 09:03 | 429916 | ||
| ERXA2_TS_DEWT_052021.nc | 27-Oct-2024 09:03 | 429916 | ||
| ERXA2_TS_DEWT_052022.nc | 27-Oct-2024 09:03 | 429908 | ||
| ERXA2_TS_DEWT_052023.nc | 27-Oct-2024 09:03 | 1262173 | ||
| ERXA2_TS_DEWT_052025.nc | 01-Jun-2025 05:43 | 1258478 | ||
| ERXA2_TS_DEWT_062018.nc | 27-Oct-2024 09:03 | 1143250 | ||
| ERXA2_TS_DEWT_062019.nc | 27-Oct-2024 09:03 | 1143257 | ||
| ERXA2_TS_DEWT_062020.nc | 27-Oct-2024 09:03 | 1240854 | ||
| ERXA2_TS_DEWT_062021.nc | 27-Oct-2024 09:03 | 1143323 | ||
| ERXA2_TS_DEWT_062022.nc | 27-Oct-2024 09:03 | 1261395 | ||
| ERXA2_TS_DEWT_062023.nc | 27-Oct-2024 09:03 | 494016 | ||
| ERXA2_TS_DEWT_062025.nc | 17-Jun-2025 04:41 | 429345 | ||
| ERXA2_TS_DEWT_072018.nc | 27-Oct-2024 09:03 | 429346 | ||
| ERXA2_TS_DEWT_072019.nc | 27-Oct-2024 09:03 | 429345 | ||
| ERXA2_TS_DEWT_072020.nc | 27-Oct-2024 09:04 | 429331 | ||
| ERXA2_TS_DEWT_072021.nc | 27-Oct-2024 09:04 | 429347 | ||
| ERXA2_TS_DEWT_072023.nc | 27-Oct-2024 09:04 | 425580 | ||
| ERXA2_TS_DEWT_072025.nc | 16-Aug-2025 08:14 | 429363 | ||
| ERXA2_TS_DEWT_082018.nc | 27-Oct-2024 09:04 | 449684 | ||
| ERXA2_TS_DEWT_082019.nc | 27-Oct-2024 09:04 | 449632 | ||
| ERXA2_TS_DEWT_082020.nc | 27-Oct-2024 09:04 | 429368 | ||
| ERXA2_TS_DEWT_082021.nc | 27-Oct-2024 09:04 | 429365 | ||
| ERXA2_TS_DEWT_082022.nc | 27-Oct-2024 09:04 | 429349 | ||
| ERXA2_TS_DEWT_082023.nc | 27-Oct-2024 09:04 | 429365 | ||
| ERXA2_TS_DEWT_082025.nc | 01-Sep-2025 08:05 | 429340 | ||
| ERXA2_TS_DEWT_092018.nc | 27-Oct-2024 09:04 | 429044 | ||
| ERXA2_TS_DEWT_092019.nc | 27-Oct-2024 09:04 | 429359 | ||
| ERXA2_TS_DEWT_092020.nc | 27-Oct-2024 09:04 | 449302 | ||
| ERXA2_TS_DEWT_092021.nc | 27-Oct-2024 09:04 | 448615 | ||
| ERXA2_TS_DEWT_092022.nc | 27-Oct-2024 09:04 | 429365 | ||
| ERXA2_TS_DEWT_092023.nc | 27-Oct-2024 09:05 | 429366 | ||
| ERXA2_TS_DEWT_092025.nc | 01-Oct-2025 08:14 | 427724 | ||
| ERXA2_TS_DEWT_102018.nc | 27-Oct-2024 09:05 | 429573 | ||
| ERXA2_TS_DEWT_102020.nc | 27-Oct-2024 09:05 | 428269 | ||
| ERXA2_TS_DEWT_102021.nc | 27-Oct-2024 09:05 | 429571 | ||
| ERXA2_TS_DEWT_102022.nc | 27-Oct-2024 09:05 | 429569 | ||
| ERXA2_TS_DEWT_102023.nc | 27-Oct-2024 09:05 | 422100 | ||
| ERXA2_TS_DEWT_102025.nc | 01-Nov-2025 07:57 | 426735 | ||
| ERXA2_TS_DEWT_112018.nc | 27-Oct-2024 09:05 | 429573 | ||
| ERXA2_TS_DEWT_112019.nc | 27-Oct-2024 09:05 | 429567 | ||
| ERXA2_TS_DEWT_112020.nc | 27-Oct-2024 09:05 | 429569 | ||
| ERXA2_TS_DEWT_112021.nc | 27-Oct-2024 09:05 | 429568 | ||
| ERXA2_TS_DEWT_112023.nc | 27-Oct-2024 09:05 | 1109304 | ||
| ERXA2_TS_DEWT_112024.nc | 17-Jan-2025 18:48 | 1108549 | ||
| ERXA2_TS_DEWT_112025.nc | 07-Dec-2025 04:52 | 994679 | ||
| ERXA2_TS_DEWT_122017.nc | 27-Oct-2024 09:05 | 1067509 | ||
| ERXA2_TS_DEWT_122018.nc | 27-Oct-2024 09:05 | 1094987 | ||
| ERXA2_TS_DEWT_122019.nc | 27-Oct-2024 09:05 | 994924 | ||
| ERXA2_TS_DEWT_122020.nc | 27-Oct-2024 09:05 | 1112433 | ||
| ERXA2_TS_DEWT_122021.nc | 27-Oct-2024 09:06 | 5484491 | ||
| ERXA2_TS_DEWT_122022.nc | 27-Oct-2024 09:06 | 627415 | ||
| ERXA2_TS_DEWT_122023.nc | 27-Oct-2024 09:06 | 429579 | ||
| ERXA2_TS_DEWT_122024.nc | 22-Jan-2025 19:06 | 429678 | ||
| ERXA2_TS_DEWT_122025.nc | 01-Jan-2026 07:09 | 428225 | ||